#timestamp,LO_Frequency,Hit 
1503633615.2,286046995.4,N
1503633635.0,286046999.3,N
1503633635.9,286046999.3,N
1503633655.8,286047000.5,N
1503633675.6,286047001.6,N
1503633695.4,286047002.1,N
1503633715.2,286047001.8,N
1503633735.1,286047000.2,N
1503633736.0,286047000.2,N
1503633755.8,286047004.3,N
1503633775.6,286047003.4,N
1503633795.5,286047003.1,N
1503633815.3,286047004.7,N
1503633835.1,286047006.6,N
1503633855.9,286047004.5,N
1503633875.7,286047005.0,N
1503633895.5,286047006.7,N
1503633915.4,286047009.0,P
1503633935.2,286047006.8,N
1503633955.0,286047005.6,N
1503633955.9,286047005.6,N
1503633975.8,286047003.9,N
1503633995.6,286047003.7,N
1503634015.4,286047002.1,N
1503634035.3,286047005.3,N
1503634055.3,286047007.2,P
1503634075.2,286047000.5,N
1503634095.9,286046999.3,N
1503634115.7,286046999.0,N
1503634135.6,286046996.9,N
1503634155.4,286046998.4,N
1503634175.2,286047001.1,N
1503634195.0,286046999.8,N
1503634196.0,286046999.8,N
1503634215.8,286047002.6,N
1503634235.6,286047001.7,N
1503634255.4,286047002.2,N
1503634275.3,286047000.5,N
1503634295.1,286046999.4,N
1503634315.8,286046998.7,N
1503634335.7,286047001.2,N
1503634355.5,286046999.5,N
1503634375.3,286046998.4,N
1503634395.2,286047000.4,N
1503634415.9,286046998.1,N
1503634435.7,286047001.1,N
1503634455.6,286046999.9,N
1503634475.4,286046999.7,N
1503634495.2,286047000.7,N
1503634515.0,286047001.6,N
1503634516.0,286047001.6,N
1503634535.8,286047002.0,N
1503634555.6,286046999.8,N
1503634575.4,286047002.6,N
1503634595.3,286047003.6,N
1503634615.1,286047001.6,N
1503634635.8,286047003.1,N
1503634655.7,286047004.2,N
1503634675.5,286047003.3,N
1503634695.3,286047004.3,N
1503634715.2,286047002.6,N
1503634735.9,286047002.2,N
1503634755.7,286046999.8,N
1503634775.6,286047001.3,N
1503634795.4,286047001.7,N
1503634815.2,286047003.7,N
1503634835.0,286047001.3,N
1503634836.0,286047001.3,N
1503634855.8,286047004.0,N
1503634875.6,286047004.2,N
1503634895.5,286047005.7,P
1503634915.3,286047003.8,N
1503634935.1,286047001.9,N
1503634955.9,286047000.2,N
1503634975.7,286047003.9,N
1503634995.5,286047002.7,N
1503635015.3,286047002.8,N
1503635035.2,286047000.5,N
1503635055.9,286047000.7,N
1503635075.7,286047001.6,N
1503635095.6,286047003.9,N
1503635115.4,286047005.8,P
1503635135.2,286047002.6,N
1503635155.1,286047001.0,N
1503635156.0,286047001.0,N
1503635175.8,286047002.4,N
1503635195.6,286047004.3,N
1503635215.5,286047002.2,N
1503635235.3,286047001.7,N
1503635255.1,286047004.2,N
1503635275.9,286047003.5,N
1503635295.7,286047003.9,N
1503635315.5,286047003.2,N
1503635335.4,286047001.3,N
1503635355.2,286047004.2,P
1503635375.0,286047001.2,N
1503635375.9,286047001.2,N
1503635395.8,286047000.6,N
1503635415.6,286047002.1,N
1503635435.4,286046999.7,N
1503635455.3,286047000.3,N
1503635475.1,286047002.3,N
1503635476.0,286047002.3,N
1503635495.8,286047000.0,N
1503635515.6,286047001.1,N
1503635535.5,286047002.8,N
1503635555.3,286047005.9,P
1503635575.2,286047005.4,N
1503635595.9,286047006.0,P
1503635615.7,286047003.3,N
1503635635.5,286047004.1,N
1503635655.4,286047001.3,N
1503635675.2,286047000.1,N
1503635695.0,286047000.2,N
1503635695.9,286047000.2,N
1503635715.8,286047000.0,N
1503635735.6,286047000.6,N
1503635755.4,286047002.5,N
1503635775.3,286047002.4,N
1503635795.1,286047001.0,N
1503635796.0,286047001.0,N
1503635815.8,286047002.6,N
1503635835.7,286047001.3,N
1503635855.5,286047002.5,N
1503635875.3,286047002.1,N
1503635895.2,286046999.7,N
1503635915.9,286047000.5,N
1503635935.7,286047001.4,N
1503635955.5,286047003.7,N
1503635975.4,286047001.7,N
1503635995.2,286047000.5,N
1503636015.0,286047002.7,N
1503636015.9,286047002.7,N
1503636035.8,286047003.9,N
1503636055.6,286047002.2,N
1503636075.4,286047002.2,N
1503636095.3,286047004.1,N
1503636115.1,286047001.8,N
1503636116.0,286047001.8,N
1503636135.8,286047000.1,N
1503636155.7,286047002.9,N
1503636175.5,286047005.4,P
1503636195.3,286047001.7,N
1503636215.2,286047004.4,N
1503636235.9,286047001.4,N
1503636255.7,286047001.3,N
1503636275.6,286047001.4,N
1503636295.4,286047003.9,N
1503636315.2,286047004.1,N
1503636335.1,286047003.4,N
1503636336.0,286047003.4,N
1503636355.8,286047001.3,N
1503636375.6,286047004.7,P
1503636395.5,286047000.7,N
1503636415.3,286046999.1,N
1503636435.1,286046997.1,N
1503636455.9,286046997.4,N
1503636475.7,286046996.9,N
1503636495.5,286046998.4,N
1503636515.3,286046998.1,N
1503636535.2,286046998.2,N
1503636555.0,286047000.0,N
1503636555.9,286047000.0,N
1503636575.7,286047000.9,N
1503636595.6,286046999.7,N
1503636615.4,286047000.8,N
1503636635.2,286046999.0,N
1503636655.1,286047001.0,N
1503636656.0,286047001.0,N
1503636675.8,286047002.7,N
1503636695.6,286047001.8,N
1503636715.5,286047002.2,N
1503636735.3,286047001.7,N
1503636755.1,286047002.3,N
1503636775.9,286047001.5,N
1503636795.7,286047002.5,N
1503636815.5,286047002.1,N
1503636835.4,286047000.9,N
1503636855.2,286046998.1,N
1503636875.0,286046998.1,N
1503636875.9,286046998.1,N
1503636895.7,286047002.1,N
1503636915.6,286046998.2,N
1503636935.4,286047001.2,N
1503636955.2,286046999.1,N
1503636975.1,286046998.2,N
1503636976.0,286046998.2,N
1503636995.8,286047000.4,N
1503637015.6,286046999.0,N
1503637035.5,286046994.9,P
1503637055.3,286046995.5,N
1503637075.1,286046997.8,N
1503637095.9,286046997.6,N
1503637115.7,286046995.6,N
1503637135.5,286046996.7,N
1503637155.4,286046997.3,N
1503637175.2,286047000.5,N
1503637195.0,286047002.3,N
1503637195.9,286047002.3,N
